| time (UTC) | temp C | wind direction | speed KPH | gust KPH | rain 1hr cm | rain 24hr cm | rain mn cm | humidity % | barometer mb |
| 20260507093603 | 18 | 148 | 0.0 | 3.2 | 0.00 | 0.46 | 0.00 | 71 | 1013.5 |
| 20260507093102 | 19 | 297 | 0.0 | 9.7 | 0.00 | 0.46 | 0.00 | 70 | 1013.6 |
| 20260507092558 | 18 | 178 | 1.6 | 9.7 | 0.00 | 0.48 | 0.00 | 72 | 1013.5 |
| 20260507092059 | 18 | 204 | 1.6 | 11.3 | 0.00 | 0.48 | 0.00 | 73 | 1013.5 |
| 20260507090558 | 18 | 200 | 1.6 | 9.7 | 0.00 | 0.51 | 0.00 | 73 | 1013.5 |
| 20260507090059 | 18 | 213 | 1.6 | 9.7 | 0.00 | 0.51 | 0.00 | 72 | 1013.5 |
| 20260507085557 | 18 | 222 | 1.6 | 11.3 | 0.00 | 0.51 | 0.00 | 70 | 1013.5 |
| 20260507085058 | 18 | 217 | 1.6 | 11.3 | 0.00 | 0.51 | 0.00 | 70 | 1013.5 |
| 20260507084558 | 18 | 203 | 0.0 | 6.4 | 0.00 | 0.51 | 0.00 | 72 | 1013.4 |
| 20260507084059 | 18 | 304 | 0.0 | 3.2 | 0.00 | 0.51 | 0.00 | 71 | 1013.3 |
| 20260507083600 | 18 | 290 | 0.0 | 4.8 | 0.00 | 0.51 | 0.00 | 70 | 1013.4 |
| 20260507083058 | 18 | 246 | 3.2 | 12.9 | 0.00 | 0.51 | 0.00 | 71 | 1013.4 |
| 20260507082558 | 18 | 262 | 3.2 | 12.9 | 0.00 | 0.51 | 0.00 | 72 | 1013.3 |
| 20260507081558 | 18 | 229 | 1.6 | 8.0 | 0.00 | 0.51 | 0.00 | 75 | 1013.2 |
| 20260507080558 | 18 | 206 | 3.2 | 9.7 | 0.00 | 0.51 | 0.00 | 78 | 1013.3 |
| 20260507080058 | 17 | 197 | 3.2 | 9.7 | 0.00 | 0.51 | 0.00 | 79 | 1013.3 |
| 20260507075600 | 17 | 196 | 3.2 | 6.4 | 0.00 | 0.51 | 0.00 | 81 | 1013.3 |
| 20260507075058 | 17 | 215 | 3.2 | 8.0 | 0.00 | 0.51 | 0.00 | 82 | 1013.4 |
| 20260507074055 | 17 | 240 | 1.6 | 6.4 | 0.00 | 0.51 | 0.00 | 84 | 1013.3 |
| 20260507073549 | 17 | 163 | 1.6 | 6.4 | 0.00 | 0.51 | 0.00 | 87 | 1013.2 |
| 20260507073050 | 16 | 163 | 1.6 | 6.4 | 0.00 | 0.51 | 0.00 | 88 | 1013.2 |
| 20260507072548 | 16 | 224 | 1.6 | 3.2 | 0.00 | 0.51 | 0.00 | 88 | 1013.2 |
| 20260507072047 | 16 | 224 | 1.6 | 3.2 | 0.00 | 0.51 | 0.00 | 89 | 1013.2 |
| 20260507071551 | 16 | 225 | 1.6 | 3.2 | 0.00 | 0.51 | 0.00 | 89 | 1013.2 |
| 20260507071046 | 16 | 225 | 1.6 | 4.8 | 0.00 | 0.51 | 0.00 | 90 | 1013.1 |
| 20260507070543 | 16 | 225 | 3.2 | 4.8 | 0.00 | 0.51 | 0.00 | 90 | 1013.1 |
| 20260507065540 | 15 | 215 | 1.6 | 4.8 | 0.00 | 0.51 | 0.00 | 91 | 1013.0 |
| 20260507065039 | 15 | 249 | 1.6 | 4.8 | 0.00 | 0.51 | 0.00 | 91 | 1013.0 |
| 20260507064540 | 15 | 247 | 1.6 | 4.8 | 0.00 | 0.51 | 0.00 | 92 | 1012.9 |
| 20260507064040 | 15 | 246 | 1.6 | 6.4 | 0.00 | 0.51 | 0.00 | 92 | 1013.0 |
| 20260507062536 | 15 | 273 | 3.2 | 6.4 | 0.00 | 0.51 | 0.00 | 92 | 1012.8 |
| 20260507062035 | 15 | 248 | 3.2 | 6.4 | 0.00 | 0.51 | 0.00 | 92 | 1012.8 |
| 20260507061535 | 15 | 255 | 1.6 | 6.4 | 0.00 | 0.51 | 0.00 | 92 | 1012.9 |
| 20260507061034 | 14 | 259 | 0.0 | 4.8 | 0.00 | 0.51 | 0.00 | 92 | 1012.9 |
| 20260507060531 | 14 | 244 | 0.0 | 1.6 | 0.00 | 0.51 | 0.00 | 92 | 1012.8 |
| 20260507060030 | 14 | 244 | 0.0 | 0.0 | 0.00 | 0.51 | 0.00 | 92 | 1012.8 |
| 20260507055524 | 14 | 244 | 0.0 | 0.0 | 0.00 | 0.51 | 0.00 | 92 | 1012.7 |
| 20260507055024 | 13 | 244 | 0.0 | 0.0 | 0.00 | 0.51 | 0.00 | 92 | 1012.6 |
| 20260507054019 | 13 | 244 | 0.0 | 0.0 | 0.00 | 0.51 | 0.00 | 92 | 1012.5 |
| 20260507053518 | 13 | 279 | 0.0 | 0.0 | 0.00 | 0.51 | 0.00 | 92 | 1012.5 |
| 20260507053015 | 13 | 279 | 0.0 | 0.0 | 0.00 | 0.51 | 0.00 | 92 | 1012.4 |
| 20260507052515 | 13 | 280 | 0.0 | 0.0 | 0.00 | 0.51 | 0.00 | 92 | 1012.4 |
| 20260507052016 | 13 | 5 | 0.0 | 0.0 | 0.00 | 0.51 | 0.00 | 92 | 1012.4 |
| 20260507051513 | 13 | 5 | 0.0 | 0.0 | 0.00 | 0.53 | 0.00 | 92 | 1012.4 |
| 20260507051012 | 13 | 5 | 0.0 | 0.0 | 0.00 | 0.53 | 0.00 | 92 | 1012.4 |
| 20260507050511 | 13 | 5 | 0.0 | 0.0 | 0.00 | 0.53 | 0.00 | 92 | 1012.3 |
| 20260507050014 | 13 | 5 | 0.0 | 0.0 | 0.00 | 0.53 | 0.00 | 92 | 1012.3 |
| 20260507045007 | 13 | 5 | 0.0 | 1.6 | 0.00 | 0.53 | 0.00 | 92 | 1012.1 |
| 20260507044506 | 13 | 5 | 0.0 | 1.6 | 0.00 | 0.53 | 0.00 | 92 | 1012.1 |
| 20260507044003 | 13 | 5 | 0.0 | 1.6 | 0.00 | 0.53 | 0.00 | 92 | 1012.1 |
| 20260507043004 | 13 | 5 | 0.0 | 0.0 | 0.00 | 0.53 | 0.00 | 92 | 1011.9 |
| 20260507042503 | 13 | 5 | 0.0 | 0.0 | 0.00 | 0.53 | 0.00 | 92 | 1011.9 |
| 20260507042006 | 13 | 5 | 0.0 | 0.0 | 0.00 | 0.53 | 0.00 | 92 | 1011.8 |
| 20260507041501 | 13 | 5 | 0.0 | 0.0 | 0.00 | 0.53 | 0.00 | 92 | 1011.7 |
| 20260507040958 | 13 | 5 | 0.0 | 0.0 | 0.00 | 0.53 | 0.00 | 92 | 1011.7 |
| 20260507040457 | 12 | 5 | 0.0 | 0.0 | 0.00 | 0.53 | 0.00 | 92 | 1011.6 |
| 20260507035957 | 12 | 5 | 0.0 | 0.0 | 0.00 | 0.53 | 0.00 | 92 | 1011.6 |
| 20260507035455 | 12 | 5 | 0.0 | 0.0 | 0.00 | 0.53 | 0.00 | 92 | 1011.5 |
| 20260507034954 | 12 | 5 | 0.0 | 0.0 | 0.00 | 0.53 | 0.00 | 92 | 1011.6 |
| 20260507034451 | 12 | 5 | 0.0 | 0.0 | 0.00 | 0.53 | 0.00 | 92 | 1011.6 |
| 20260507033949 | 12 | 5 | 0.0 | 0.0 | 0.00 | 0.56 | 0.00 | 92 | 1011.5 |
| 20260507033447 | 12 | 5 | 0.0 | 0.0 | 0.00 | 0.58 | 0.00 | 92 | 1011.5 |
| 20260507031948 | 12 | 5 | 0.0 | 0.0 | 0.00 | 0.66 | 0.00 | 92 | 1011.4 |
| 20260507031447 | 12 | 5 | 0.0 | 1.6 | 0.00 | 0.69 | 0.00 | 92 | 1011.6 |
| 20260507030947 | 12 | 5 | 0.0 | 3.2 | 0.00 | 0.69 | 0.00 | 92 | 1011.5 |
| 20260507030448 | 12 | 5 | 1.6 | 4.8 | 0.00 | 0.69 | 0.00 | 92 | 1011.6 |
| 20260507025947 | 12 | 5 | 1.6 | 4.8 | 0.00 | 0.69 | 0.00 | 92 | 1011.5 |
| 20260507025448 | 12 | 344 | 1.6 | 4.8 | 0.00 | 0.69 | 0.00 | 92 | 1011.5 |
| 20260507024941 | 12 | 0 | 0.0 | 4.8 | 0.00 | 0.69 | 0.00 | 92 | 1011.4 |
| 20260507024437 | 12 | 34 | 0.0 | 4.8 | 0.00 | 0.69 | 0.00 | 92 | 1011.5 |
| 20260507023939 | 12 | 34 | 1.6 | 4.8 | 0.00 | 0.69 | 0.00 | 92 | 1011.4 |
| 20260507023437 | 12 | 5 | 0.0 | 4.8 | 0.00 | 0.69 | 0.00 | 92 | 1011.4 |
| 20260507022937 | 12 | 347 | 0.0 | 4.8 | 0.00 | 0.69 | 0.00 | 92 | 1011.4 |
| 20260507021935 | 12 | 328 | 0.0 | 1.6 | 0.00 | 0.69 | 0.00 | 92 | 1011.4 |
| 20260507021435 | 12 | 329 | 0.0 | 1.6 | 0.00 | 0.69 | 0.00 | 92 | 1011.3 |
| 20260507020935 | 12 | 329 | 0.0 | 1.6 | 0.00 | 0.69 | 0.00 | 92 | 1011.3 |
| 20260507015933 | 12 | 329 | 0.0 | 0.0 | 0.00 | 0.69 | 0.00 | 92 | 1011.4 |
| 20260507015431 | 13 | 329 | 0.0 | 3.2 | 0.00 | 0.69 | 0.00 | 92 | 1011.3 |
| 20260507014931 | 12 | 328 | 0.0 | 3.2 | 0.00 | 0.69 | 0.00 | 92 | 1011.3 |
| 20260507014432 | 13 | 329 | 0.0 | 3.2 | 0.00 | 0.69 | 0.00 | 92 | 1011.2 |
| 20260507013931 | 12 | 343 | 0.0 | 1.6 | 0.00 | 0.69 | 0.00 | 92 | 1011.2 |
| 20260507013431 | 12 | 350 | 0.0 | 0.0 | 0.00 | 0.69 | 0.00 | 92 | 1011.2 |
| 20260507012931 | 13 | 350 | 0.0 | 0.0 | 0.00 | 0.69 | 0.00 | 91 | 1011.2 |
| 20260507012431 | 13 | 350 | 0.0 | 0.0 | 0.00 | 0.69 | 0.00 | 91 | 1011.2 |
| 20260507011930 | 13 | 350 | 0.0 | 0.0 | 0.00 | 0.69 | 0.00 | 91 | 1011.2 |
| 20260507011431 | 13 | 350 | 0.0 | 0.0 | 0.00 | 0.69 | 0.00 | 92 | 1011.2 |
| 20260507010432 | 13 | 350 | 0.0 | 0.0 | 0.00 | 0.69 | 0.00 | 92 | 1011.3 |
| 20260507005931 | 13 | 350 | 0.0 | 0.0 | 0.00 | 0.69 | 0.00 | 92 | 1011.2 |
| 20260507005434 | 13 | 350 | 0.0 | 0.0 | 0.00 | 0.69 | 0.00 | 92 | 1011.4 |
| 20260507004930 | 13 | 350 | 0.0 | 3.2 | 0.00 | 0.69 | 0.00 | 92 | 1011.3 |
| 20260507004431 | 13 | 350 | 0.0 | 3.2 | 0.00 | 0.69 | 0.00 | 92 | 1011.4 |
| 20260507003932 | 13 | 350 | 0.0 | 3.2 | 0.00 | 0.69 | 0.00 | 91 | 1011.3 |
| 20260507003430 | 13 | 355 | 0.0 | 0.0 | 0.00 | 0.69 | 0.00 | 91 | 1011.3 |
| 20260507002931 | 13 | 355 | 0.0 | 0.0 | 0.00 | 0.69 | 0.00 | 91 | 1011.2 |
| 20260507002430 | 13 | 355 | 0.0 | 0.0 | 0.00 | 0.69 | 0.00 | 91 | 1011.3 |
| 20260507001931 | 13 | 355 | 0.0 | 0.0 | 0.00 | 0.69 | 0.00 | 91 | 1011.1 |
| 20260507001432 | 13 | 355 | 0.0 | 0.0 | 0.00 | 0.69 | 0.00 | 91 | 1011.0 |
| 20260507000931 | 13 | 355 | 0.0 | 0.0 | 0.00 | 0.69 | 0.00 | 91 | 1011.1 |
| 20260507000428 | 13 | 355 | 0.0 | 0.0 | 0.00 | 0.69 | 0.00 | 91 | 1011.1 |
| 20260506235417 | 13 | 355 | 0.0 | 3.2 | 0.00 | 0.69 | 0.00 | 91 | 1011.3 |
| 20260506234910 | 13 | 355 | 0.0 | 1.6 | 0.00 | 0.69 | 0.00 | 91 | 1011.3 |
| 20260506234403 | 13 | 355 | 0.0 | 1.6 | 0.00 | 0.69 | 0.00 | 91 | 1011.3 |
| 20260506233902 | 13 | 355 | 0.0 | 1.6 | 0.00 | 0.69 | 0.00 | 91 | 1011.2 |
| 20260506233403 | 13 | 355 | 0.0 | 0.0 | 0.00 | 0.69 | 0.00 | 91 | 1011.3 |
| 20260506232903 | 13 | 355 | 0.0 | 0.0 | 0.00 | 0.69 | 0.00 | 91 | 1011.2 |
| 20260506232403 | 13 | 355 | 0.0 | 0.0 | 0.00 | 0.69 | 0.00 | 91 | 1011.2 |
| 20260506231903 | 13 | 355 | 0.0 | 0.0 | 0.00 | 0.69 | 0.00 | 91 | 1011.2 |
| 20260506231403 | 13 | 355 | 0.0 | 0.0 | 0.00 | 0.69 | 0.00 | 91 | 1011.2 |
| 20260506230903 | 13 | 355 | 0.0 | 0.0 | 0.00 | 0.69 | 0.00 | 91 | 1011.2 |
| 20260506225902 | 13 | 355 | 0.0 | 3.2 | 0.00 | 0.69 | 0.00 | 91 | 1011.1 |
| 20260506225402 | 13 | 355 | 0.0 | 3.2 | 0.00 | 0.69 | 0.00 | 91 | 1011.1 |
| 20260506224904 | 13 | 27 | 0.0 | 0.0 | 0.00 | 0.69 | 0.00 | 91 | 1011.1 |
| 20260506224404 | 13 | 27 | 0.0 | 0.0 | 0.00 | 0.69 | 0.00 | 91 | 1011.1 |
| 20260506223402 | 13 | 27 | 0.0 | 3.2 | 0.00 | 0.69 | 0.00 | 91 | 1011.2 |
| 20260506222903 | 13 | 27 | 0.0 | 0.0 | 0.00 | 0.69 | 0.00 | 91 | 1011.2 |
| 20260506222402 | 14 | 27 | 0.0 | 0.0 | 0.00 | 0.69 | 0.00 | 91 | 1011.2 |
| 20260506221902 | 14 | 27 | 0.0 | 0.0 | 0.00 | 0.69 | 0.00 | 91 | 1011.2 |
| 20260506221404 | 14 | 27 | 0.0 | 0.0 | 0.00 | 0.69 | 0.00 | 90 | 1011.1 |
| 20260506220903 | 14 | 27 | 0.0 | 0.0 | 0.00 | 0.69 | 0.00 | 90 | 1011.1 |
| 20260506215902 | 14 | 27 | 0.0 | 0.0 | 0.00 | 0.69 | 0.69 | 90 | 1011.1 |
| 20260506215402 | 14 | 27 | 0.0 | 0.0 | 0.00 | 0.69 | 0.69 | 90 | 1011.1 |
| 20260506214903 | 14 | 27 | 0.0 | 0.0 | 0.00 | 0.69 | 0.69 | 91 | 1011.1 |
| 20260506214403 | 14 | 27 | 0.0 | 0.0 | 0.00 | 0.69 | 0.69 | 90 | 1011.0 |
| 20260506213903 | 14 | 27 | 0.0 | 0.0 | 0.00 | 0.69 | 0.69 | 90 | 1010.9 |
| 20260506212902 | 15 | 27 | 0.0 | 3.2 | 0.00 | 0.69 | 0.69 | 90 | 1011.0 |
| 20260506212404 | 15 | 27 | 0.0 | 3.2 | 0.00 | 0.69 | 0.69 | 90 | 1011.0 |
| 20260506211902 | 15 | 27 | 0.0 | 0.0 | 0.00 | 0.69 | 0.69 | 90 | 1011.0 |
| 20260506211402 | 15 | 33 | 0.0 | 0.0 | 0.00 | 0.69 | 0.69 | 90 | 1011.0 |
| 20260506205403 | 15 | 32 | 1.6 | 4.8 | 0.00 | 0.69 | 0.69 | 90 | 1010.8 |
| 20260506204902 | 15 | 33 | 1.6 | 4.8 | 0.00 | 0.69 | 0.69 | 90 | 1010.8 |
| 20260506204404 | 15 | 32 | 0.0 | 3.2 | 0.00 | 0.69 | 0.69 | 89 | 1010.8 |
| 20260506203902 | 15 | 33 | 0.0 | 3.2 | 0.00 | 0.69 | 0.69 | 89 | 1010.8 |
| 20260506202904 | 15 | 33 | 1.6 | 3.2 | 0.00 | 0.69 | 0.69 | 89 | 1010.8 |
| 20260506202402 | 15 | 33 | 1.6 | 6.4 | 0.00 | 0.69 | 0.69 | 89 | 1010.8 |
| 20260506201902 | 15 | 33 | 1.6 | 6.4 | 0.00 | 0.69 | 0.69 | 89 | 1010.8 |
| 20260506201403 | 15 | 32 | 1.6 | 4.8 | 0.00 | 0.69 | 0.69 | 89 | 1010.7 |
| 20260506195903 | 16 | 59 | 0.0 | 3.2 | 0.00 | 0.69 | 0.69 | 88 | 1010.5 |
| 20260506194903 | 16 | 59 | 1.6 | 4.8 | 0.00 | 0.69 | 0.69 | 88 | 1010.4 |
| 20260506194404 | 16 | 61 | 1.6 | 4.8 | 0.00 | 0.69 | 0.69 | 88 | 1010.3 |
| 20260506193904 | 16 | 5 | 1.6 | 6.4 | 0.00 | 0.69 | 0.69 | 88 | 1010.3 |
| 20260506193403 | 16 | 61 | 4.8 | 9.7 | 0.00 | 0.69 | 0.69 | 88 | 1010.2 |
| 20260506192900 | 16 | 47 | 4.8 | 9.7 | 0.00 | 0.69 | 0.69 | 88 | 1010.2 |
| 20260506192354 | 16 | 27 | 4.8 | 8.0 | 0.00 | 0.69 | 0.69 | 88 | 1010.1 |
| 20260506191848 | 16 | 51 | 3.2 | 8.0 | 0.00 | 0.69 | 0.69 | 87 | 1010.1 |
| 20260506191344 | 16 | 15 | 1.6 | 6.4 | 0.00 | 0.69 | 0.69 | 87 | 1010.2 |
| 20260506190840 | 16 | 355 | 1.6 | 6.4 | 0.00 | 0.69 | 0.69 | 87 | 1010.1 |
| 20260506190336 | 16 | 355 | 3.2 | 6.4 | 0.00 | 0.69 | 0.69 | 87 | 1010.0 |
| 20260506185835 | 16 | 355 | 3.2 | 6.4 | 0.00 | 0.69 | 0.69 | 87 | 1009.9 |
| 20260506185335 | 16 | 343 | 1.6 | 6.4 | 0.00 | 0.69 | 0.69 | 87 | 1010.0 |
| 20260506184832 | 16 | 96 | 1.6 | 4.8 | 0.00 | 0.69 | 0.69 | 87 | 1009.9 |
| 20260506184331 | 16 | 96 | 3.2 | 6.4 | 0.00 | 0.69 | 0.69 | 87 | 1009.9 |
| 20260506183832 | 16 | 33 | 3.2 | 6.4 | 0.00 | 0.69 | 0.69 | 87 | 1009.8 |
| 20260506183331 | 16 | 42 | 3.2 | 6.4 | 0.00 | 0.69 | 0.69 | 87 | 1009.8 |
| 20260506182833 | 16 | 48 | 3.2 | 6.4 | 0.00 | 0.69 | 0.69 | 87 | 1009.7 |
| 20260506182330 | 16 | 355 | 1.6 | 4.8 | 0.00 | 0.69 | 0.69 | 86 | 1009.7 |
| 20260506181333 | 16 | 355 | 4.8 | 8.0 | 0.00 | 0.69 | 0.69 | 86 | 1009.6 |
| 20260506180832 | 16 | 5 | 4.8 | 9.7 | 0.00 | 0.69 | 0.69 | 86 | 1009.6 |
| 20260506180331 | 16 | 25 | 3.2 | 9.7 | 0.00 | 0.69 | 0.69 | 85 | 1009.3 |
| 20260506175834 | 16 | 90 | 3.2 | 8.0 | 0.00 | 0.69 | 0.69 | 85 | 1009.2 |
| 20260506175331 | 17 | 114 | 3.2 | 6.4 | 0.00 | 0.69 | 0.69 | 85 | 1009.4 |
| 20260506174830 | 17 | 118 | 3.2 | 6.4 | 0.00 | 0.69 | 0.69 | 85 | 1009.4 |
| 20260506174331 | 17 | 139 | 3.2 | 8.0 | 0.00 | 0.69 | 0.69 | 85 | 1009.3 |
| 20260506173831 | 17 | 99 | 3.2 | 9.7 | 0.00 | 0.69 | 0.69 | 85 | 1009.3 |
| 20260506173332 | 17 | 115 | 3.2 | 9.7 | 0.00 | 0.69 | 0.69 | 84 | 1009.2 |
| 20260506172830 | 17 | 95 | 1.6 | 4.8 | 0.00 | 0.69 | 0.69 | 85 | 1009.3 |
| 20260506172331 | 17 | 90 | 1.6 | 4.8 | 0.00 | 0.69 | 0.69 | 85 | 1009.3 |
| 20260506171832 | 17 | 90 | 1.6 | 4.8 | 0.00 | 0.69 | 0.69 | 84 | 1009.3 |
| 20260506171331 | 17 | 89 | 1.6 | 4.8 | 0.00 | 0.69 | 0.69 | 84 | 1009.2 |
| 20260506170831 | 17 | 74 | 1.6 | 4.8 | 0.00 | 0.69 | 0.69 | 84 | 1009.2 |
| 20260506170331 | 17 | 74 | 3.2 | 6.4 | 0.00 | 0.69 | 0.69 | 84 | 1009.2 |
| 20260506165331 | 17 | 24 | 3.2 | 4.8 | 0.00 | 0.69 | 0.69 | 83 | 1009.1 |
| 20260506164330 | 17 | 32 | 3.2 | 6.4 | 0.00 | 0.69 | 0.69 | 82 | 1009.2 |
| 20260506163827 | 17 | 30 | 1.6 | 4.8 | 0.00 | 0.69 | 0.69 | 81 | 1009.2 |
| 20260506163329 | 17 | 126 | 1.6 | 6.4 | 0.00 | 0.69 | 0.69 | 81 | 1009.1 |
| 20260506162824 | 17 | 126 | 3.2 | 8.0 | 0.00 | 0.69 | 0.69 | 80 | 1009.2 |
| 20260506162323 | 18 | 126 | 3.2 | 8.0 | 0.00 | 0.69 | 0.69 | 80 | 1009.2 |
| 20260506161823 | 18 | 107 | 3.2 | 8.0 | 0.00 | 0.69 | 0.69 | 80 | 1009.3 |
| 20260506161324 | 18 | 115 | 4.8 | 9.7 | 0.00 | 0.69 | 0.69 | 79 | 1009.4 |
| 20260506160823 | 18 | 140 | 3.2 | 9.7 | 0.00 | 0.69 | 0.69 | 79 | 1009.5 |
| 20260506160323 | 18 | 140 | 3.2 | 8.0 | 0.00 | 0.69 | 0.69 | 80 | 1009.4 |
| 20260506155323 | 18 | 167 | 3.2 | 6.4 | 0.00 | 0.69 | 0.69 | 82 | 1009.4 |
| 20260506154823 | 18 | 146 | 3.2 | 6.4 | 0.00 | 0.69 | 0.69 | 84 | 1009.5 |
| 20260506154319 | 17 | 84 | 3.2 | 8.0 | 0.00 | 0.69 | 0.69 | 85 | 1009.4 |
| 20260506153820 | 17 | 121 | 4.8 | 8.0 | 0.00 | 0.69 | 0.69 | 85 | 1009.3 |
| 20260506153320 | 17 | 159 | 4.8 | 9.7 | 0.00 | 0.69 | 0.69 | 86 | 1009.2 |
| 20260506152319 | 17 | 138 | 4.8 | 9.7 | 0.00 | 0.69 | 0.69 | 86 | 1009.2 |
| 20260506151819 | 17 | 157 | 4.8 | 9.7 | 0.00 | 0.69 | 0.69 | 86 | 1009.3 |
| 20260506150819 | 16 | 105 | 4.8 | 11.3 | 0.00 | 0.69 | 0.69 | 86 | 1009.4 |
| 20260506150328 | 16 | 165 | 4.8 | 11.3 | 0.00 | 0.69 | 0.69 | 87 | 1009.4 |
| 20260506145817 | 16 | 138 | 4.8 | 11.3 | 0.00 | 0.69 | 0.69 | 88 | 1009.4 |
| 20260506145318 | 16 | 65 | 3.2 | 11.3 | 0.00 | 0.69 | 0.69 | 88 | 1009.4 |
| 20260506144815 | 16 | 137 | 4.8 | 9.7 | 0.00 | 0.69 | 0.69 | 89 | 1009.4 |
| 20260506144315 | 15 | 92 | 4.8 | 11.3 | 0.00 | 0.69 | 0.69 | 89 | 1009.5 |
| 20260506143815 | 15 | 159 | 4.8 | 11.3 | 0.00 | 0.69 | 0.69 | 89 | 1009.5 |
| 20260506143313 | 15 | 109 | 4.8 | 14.5 | 0.00 | 0.69 | 0.69 | 90 | 1009.6 |
| 20260506141811 | 15 | 95 | 8.0 | 16.1 | 0.00 | 0.69 | 0.69 | 90 | 1009.4 |
| 20260506141311 | 16 | 125 | 6.4 | 16.1 | 0.00 | 0.69 | 0.69 | 90 | 1009.4 |
| 20260506140811 | 16 | 64 | 6.4 | 14.5 | 0.03 | 0.69 | 0.69 | 91 | 1009.5 |
| 20260506135808 | 16 | 94 | 4.8 | 12.9 | 0.18 | 0.69 | 0.69 | 91 | 1009.7 |
| 20260506134807 | 16 | 75 | 4.8 | 12.9 | 0.41 | 0.69 | 0.69 | 90 | 1009.5 |
| 20260506134307 | 16 | 87 | 4.8 | 12.9 | 0.43 | 0.69 | 0.69 | 90 | 1009.5 |
| 20260506133807 | 16 | 80 | 3.2 | 12.9 | 0.43 | 0.69 | 0.69 | 90 | 1009.7 |
| 20260506132807 | 16 | 58 | 4.8 | 11.3 | 0.46 | 0.69 | 0.69 | 90 | 1009.8 |
| 20260506132307 | 16 | 97 | 6.4 | 14.5 | 0.46 | 0.69 | 0.69 | 90 | 1009.9 |
| 20260506131805 | 16 | 93 | 6.4 | 14.5 | 0.46 | 0.69 | 0.69 | 89 | 1009.9 |
| 20260506131306 | 16 | 108 | 4.8 | 12.9 | 0.46 | 0.69 | 0.69 | 89 | 1009.9 |
| 20260506130805 | 16 | 108 | 4.8 | 11.3 | 0.43 | 0.66 | 0.66 | 89 | 1010.1 |
| 20260506130305 | 16 | 105 | 3.2 | 11.3 | 0.38 | 0.61 | 0.58 | 88 | 1010.1 |
| 20260506125803 | 16 | 140 | 4.8 | 12.9 | 0.28 | 0.51 | 0.48 | 88 | 1010.2 |
| 20260506125306 | 16 | 86 | 6.4 | 12.9 | 0.15 | 0.36 | 0.33 | 87 | 1010.2 |
| 20260506124302 | 16 | 114 | 4.8 | 11.3 | 0.03 | 0.23 | 0.23 | 87 | 1010.3 |
| 20260506123803 | 16 | 80 | 4.8 | 11.3 | 0.03 | 0.23 | 0.23 | 87 | 1010.2 |
| 20260506122805 | 16 | 150 | 4.8 | 14.5 | 0.00 | 0.23 | 0.23 | 87 | 1010.0 |
| 20260506122305 | 16 | 98 | 4.8 | 14.5 | 0.00 | 0.23 | 0.23 | 86 | 1010.0 |
| 20260506121807 | 16 | 81 | 4.8 | 12.9 | 0.00 | 0.23 | 0.23 | 86 | 1010.0 |
| 20260506121302 | 16 | 71 | 4.8 | 12.9 | 0.00 | 0.23 | 0.23 | 86 | 1010.1 |
| 20260506120803 | 16 | 86 | 4.8 | 16.1 | 0.00 | 0.23 | 0.23 | 85 | 1010.2 |
| 20260506120302 | 16 | 128 | 6.4 | 16.1 | 0.00 | 0.23 | 0.23 | 85 | 1010.2 |
| 20260506115802 | 16 | 113 | 6.4 | 14.5 | 0.00 | 0.23 | 0.23 | 84 | 1010.3 |
| 20260506115306 | 17 | 101 | 6.4 | 14.5 | 0.00 | 0.23 | 0.23 | 84 | 1010.4 |
| 20260506114805 | 17 | 132 | 4.8 | 12.9 | 0.00 | 0.23 | 0.23 | 83 | 1010.4 |
| 20260506113802 | 17 | 78 | 6.4 | 12.9 | 0.00 | 0.23 | 0.23 | 83 | 1010.5 |
| 20260506113302 | 17 | 98 | 6.4 | 12.9 | 0.00 | 0.23 | 0.23 | 83 | 1010.5 |
| 20260506112803 | 17 | 128 | 6.4 | 12.9 | 0.00 | 0.23 | 0.23 | 83 | 1010.6 |
| 20260506112305 | 17 | 134 | 4.8 | 12.9 | 0.00 | 0.23 | 0.23 | 84 | 1010.6 |
| 20260506111802 | 17 | 126 | 4.8 | 11.3 | 0.00 | 0.23 | 0.23 | 84 | 1010.7 |
| 20260506110803 | 17 | 117 | 3.2 | 12.9 | 0.00 | 0.23 | 0.23 | 87 | 1010.8 |
| 20260506110304 | 16 | 147 | 4.8 | 12.9 | 0.00 | 0.23 | 0.23 | 87 | 1010.8 |
| 20260506105802 | 16 | 146 | 6.4 | 12.9 | 0.00 | 0.23 | 0.23 | 87 | 1010.9 |
| 20260506105305 | 16 | 164 | 4.8 | 11.3 | 0.00 | 0.23 | 0.23 | 87 | 1011.0 |
| 20260506104802 | 16 | 130 | 4.8 | 11.3 | 0.00 | 0.23 | 0.23 | 87 | 1011.1 |
| 20260506104300 | 16 | 121 | 4.8 | 11.3 | 0.00 | 0.23 | 0.23 | 87 | 1011.1 |
| 20260506103248 | 16 | 101 | 6.4 | 16.1 | 0.00 | 0.23 | 0.23 | 87 | 1010.9 |
| 20260506102747 | 15 | 90 | 4.8 | 14.5 | 0.00 | 0.23 | 0.23 | 87 | 1010.9 |
| 20260506102246 | 15 | 110 | 4.8 | 11.3 | 0.03 | 0.23 | 0.23 | 87 | 1011.0 |
| 20260506101747 | 15 | 118 | 4.8 | 9.7 | 0.03 | 0.23 | 0.23 | 87 | 1011.2 |
| 20260506101248 | 15 | 126 | 1.6 | 6.4 | 0.05 | 0.23 | 0.23 | 88 | 1011.3 |
| 20260506100746 | 15 | 128 | 1.6 | 6.4 | 0.05 | 0.23 | 0.23 | 88 | 1011.3 |
| 20260506100246 | 15 | 134 | 3.2 | 6.4 | 0.05 | 0.23 | 0.23 | 88 | 1011.3 |
| 20260506095746 | 15 | 108 | 3.2 | 9.7 | 0.05 | 0.23 | 0.23 | 88 | 1011.3 |
| 20260506095247 | 15 | 162 | 4.8 | 12.9 | 0.05 | 0.23 | 0.23 | 88 | 1011.3 |
| 20260506094746 | 15 | 118 | 3.2 | 12.9 | 0.05 | 0.23 | 0.23 | 88 | 1011.2 |
| 20260506094246 | 16 | 123 | 1.6 | 12.9 | 0.05 | 0.23 | 0.23 | 87 | 1011.3 |